SCP
-0 -0 -0 -0 -0 0 0 0 0 0 0 0 0 0 0 0 0 0 0 0 0 0 0 0 0 0 0 0 0 0 0 0
-0 -0 -0 -0 -0 0 0 0 0 0 0 0 0 0 0 0 0 0 0 0 0 0 0 0 0 0 0 0 0 0 0 0
-0 -0 -0 0 0 0 0 0 0 0 0 0 0 0 0 0 0 0 0 0 0 0 0 0 0 0 0 0 0 0 0 0
-0 0 0 0 0 0 0 0 1 0 0 0 0 0 0 0 0 0 0 0 0 0 0 0 0 0 0 0 0 0 0 0
-0 0 0 0 0 0 0 1 1 1 1 1 1 1 0 0 1 0 0 0 0 1 1 1 0 0 0 0 0 0 0 0
0 0 0 0 0 0 0 0 1 1 1 1 1 1 0 0 0 0 0 0 1 1 1 1 1 0 0 0 0 0 0 0
0 0 0 0 0 0 0 0 0 0 0 0 0 0 0 0 0 0 0 0 1 1 1 1 1 1 0 0 0 0 0 0
0 0 0 1 1 0 0 0 0 1 1 1 1 1 1 0 0 0 0 0 1 1 0 1 1 1 0 0 0 1 0 0
0 0 0 1 1 1 0 0 0 0 1 1 1 2 1 1 1 1 0 0 1 1 1 1 0 1 0 0 0 0 1 1
0 0 0 0 2 2 1 0 1 1 1 1 2 3 2 1 1 1 1 0 1 0 0 0 0 1 1 0 1 1 1 1
0 0 0 0 4 2 2 2 1 2 1 2 2 3 4 2 2 1 1 1 0 0 0 0 0 1 1 1 1 1 2 2
0 0 0 0 2 3 3 2 1 1 2 2 2 4 5 3 2 2 1 1 1 1 1 1 2 1 1 1 1 2 2 1
0 0 0 0 0 1 2 1 1 1 2 2 1 2 3 4 3 3 1 1 1 1 1 1 1 1 1 1 1 4 2 1
0 0 0 0 0 0 2 1 1 2 2 2 1 1 3 2 2 1 1 1 2 1 1 1 1 1 1 1 3 3 2 1
0 1 2 1 1 2 1 3 1 1 2 1 1 1 3 2 1 2 1 2 2 1 1 1 1 1 1 1 3 2 1 1
0 1 1 1 3 2 1 1 1 2 2 1 1 2 2 2 1 2 1 2 2 1 2 2 1 1 1 2 2 1 1 1
0 1 1 2 3 3 2 3 3 3 1 2 2 2 2 1 1 2 2 3 2 2 2 1 1 1 1 2 1 1 1 1
0 0 0 1 2 4 5 4 4 3 3 2 2 2 2 1 2 2 1 2 2 2 1 2 1 1 1 2 1 1 1 0
0 0 0 1 2 4 7 3 4 1 2 1 2 2 2 1 2 1 1 2 3 1 3 2 1 1 1 1 1 0 0 0
Wind_Speed_500mb
38 39 39 40 38 37 38 36 36 36 36 34 32 30 28 27 24 23 22 20 17 15 14 11 8 7 7 8 10 11 10 7
40 37 37 42 39 37 37 38 37 36 36 35 35 34 33 31 28 27 26 22 20 19 16 13 11 10 10 10 12 12 13 12
38 37 36 42 42 39 37 36 35 35 37 37 37 38 37 36 34 32 31 28 25 21 18 16 15 14 14 13 12 13 14 15
37 37 39 38 43 42 39 39 37 36 37 40 41 41 41 40 39 37 36 33 29 25 23 20 18 17 16 15 14 14 15 16
37 35 35 36 42 45 43 42 42 41 42 43 46 45 45 44 45 44 42 40 36 33 28 24 22 21 19 19 17 17 18 16
36 36 34 31 34 37 42 44 44 46 50 51 53 52 51 52 54 54 52 48 43 40 34 29 29 27 24 23 19 20 22 15
39 38 34 34 33 32 31 35 41 47 57 59 61 63 61 60 59 55 56 54 50 48 41 38 36 33 30 23 28 25 28 14
41 39 37 40 39 36 31 32 35 37 45 52 58 64 65 59 57 51 45 52 59 58 52 48 45 42 32 23 21 25 16 20
26 32 28 34 47 38 32 29 32 32 34 40 42 50 56 62 57 54 50 43 45 45 55 42 35 35 31 30 31 31 27 28
21 25 27 33 49 29 22 27 32 35 38 40 41 49 53 51 54 54 53 45 45 38 43 40 42 38 35 34 34 35 35 34
31 29 24 28 42 27 24 32 34 42 41 44 44 48 59 52 54 50 53 48 51 45 39 42 38 41 41 37 37 37 39 37
35 29 27 29 25 31 29 32 43 48 44 41 44 52 61 61 52 55 49 47 47 47 50 45 44 42 41 38 38 35 38 40
35 33 31 33 28 27 36 37 46 47 45 40 41 46 57 63 58 56 49 47 45 45 44 45 44 43 41 38 40 49 45 37
33 32 33 35 37 35 40 49 52 51 50 40 41 42 48 54 50 49 45 43 47 42 42 42 42 42 38 37 42 43 39 33
41 42 46 46 49 58 61 60 56 50 45 39 40 39 47 50 47 43 40 39 42 39 39 40 40 38 38 35 39 36 30 30
46 51 57 54 51 51 51 50 40 37 37 35 37 41 42 43 41 41 37 38 41 36 38 44 42 41 34 35 31 22 29 34
54 55 55 48 43 42 40 41 37 33 32 33 34 39 40 38 37 39 39 39 37 31 36 40 36 29 31 35 21 21 22 29
54 52 47 48 45 41 37 33 38 35 31 34 36 36 37 36 37 40 41 35 36 32 28 32 29 33 25 25 25 22 10 15
61 53 50 52 52 47 46 42 42 33 34 33 38 31 32 35 42 39 38 38 34 27 30 27 29 27 31 28 21 25 29 23
Wind_Direction_500mb
169 185 190 202 205 203 203 200 199 202 203 200 202 203 204 209 210 211 211 208 207 214 218 219 225 237 257 280 290 298 291 290
172 184 195 208 212 213 211 210 207 209 211 212 210 213 215 216 216 218 219 217 214 216 220 223 229 237 245 254 265 280 286 283
174 180 203 207 213 219 220 221 219 216 220 221 221 221 222 223 222 224 224 223 223 223 227 229 231 236 238 243 256 267 275 274
179 183 211 207 214 220 225 229 231 230 229 230 231 230 228 230 230 229 230 231 231 232 233 233 234 240 249 256 265 275 280 274
184 191 196 217 220 223 229 232 235 241 241 240 239 237 235 237 238 235 234 234 234 236 235 235 239 245 251 258 268 282 288 284
193 197 199 209 227 229 234 242 241 245 244 243 243 241 238 238 240 237 235 236 237 237 236 238 242 247 250 256 271 295 294 282
202 205 208 205 208 221 215 234 255 251 252 248 246 244 237 236 239 241 238 235 236 236 237 240 242 244 248 249 283 287 311 258
217 213 218 233 217 213 217 221 243 259 255 255 250 247 246 236 235 233 228 240 235 234 235 237 238 240 238 237 247 274 267 262
219 222 223 222 254 241 222 237 238 237 238 242 251 255 243 244 233 224 229 227 243 229 237 225 234 235 233 234 242 246 256 257
223 223 236 237 246 230 233 249 257 249 241 236 234 249 255 229 230 229 224 222 229 229 234 227 228 236 235 237 244 250 252 251
240 236 239 234 228 232 259 276 277 269 248 241 232 231 253 247 226 224 228 227 223 230 232 232 232 232 235 239 247 242 257 255
244 241 236 217 228 256 272 279 286 281 258 240 238 231 238 252 224 223 224 229 229 226 229 230 234 236 234 241 243 249 244 240
244 237 232 224 229 251 274 287 279 271 260 241 233 233 235 238 238 223 220 228 228 226 227 229 230 233 237 242 247 246 255 244
236 227 232 236 246 254 269 279 274 273 256 240 234 226 230 227 226 212 220 223 225 224 224 226 227 231 236 241 247 259 253 242
240 238 238 242 258 266 270 267 261 263 252 239 230 223 219 225 216 220 214 217 223 221 221 222 226 228 232 246 247 256 251 240
240 237 245 264 267 260 255 256 247 248 239 232 225 217 210 216 210 215 208 222 215 216 215 222 221 226 230 240 246 250 252 245
245 247 255 256 253 251 250 247 238 245 236 229 218 212 205 205 207 209 196 217 217 208 212 215 214 222 228 236 229 253 262 265
248 250 252 250 247 246 250 249 248 232 213 213 210 205 202 198 204 208 188 202 213 183 214 210 215 214 228 229 230 242 249 260
252 248 246 243 247 248 250 246 233 225 218 215 207 201 193 191 210 189 183 192 199 190 209 213 218 218 227 238 245 249 244 255
Wind_Speed_850mb
38 39 39 40 38 37 38 36 36 36 36 34 32 30 28 27 24 23 22 20 17 15 14 11 8 7 7 8 10 11 10 7
40 37 37 42 39 37 37 38 37 36 36 35 35 34 33 31 28 27 26 22 20 19 16 13 11 10 10 10 12 12 13 12
38 37 36 42 42 39 37 36 35 35 37 37 37 38 37 36 34 32 31 28 25 21 18 16 15 14 14 13 12 13 14 15
37 37 39 38 43 42 39 39 37 36 37 40 41 41 41 40 39 37 36 33 29 25 23 20 18 17 16 15 14 14 15 16
37 35 35 36 42 45 43 42 42 41 42 43 46 45 45 44 45 44 42 40 36 33 28 24 22 21 19 19 17 17 18 16
36 36 34 31 34 37 42 44 44 46 50 51 53 52 51 52 54 54 52 48 43 40 34 29 29 27 24 23 19 20 22 15
39 38 34 34 33 32 31 35 41 47 57 59 61 63 61 60 59 55 56 54 50 48 41 38 36 33 30 23 28 25 28 14
41 39 37 40 39 36 31 32 35 37 45 52 58 64 65 59 57 51 45 52 59 58 52 48 45 42 32 23 21 25 16 20
26 32 28 34 47 38 32 29 32 32 34 40 42 50 56 62 57 54 50 43 45 45 55 42 35 35 31 30 31 31 27 28
21 25 27 33 49 29 22 27 32 35 38 40 41 49 53 51 54 54 53 45 45 38 43 40 42 38 35 34 34 35 35 34
31 29 24 28 42 27 24 32 34 42 41 44 44 48 59 52 54 50 53 48 51 45 39 42 38 41 41 37 37 37 39 37
35 29 27 29 25 31 29 32 43 48 44 41 44 52 61 61 52 55 49 47 47 47 50 45 44 42 41 38 38 35 38 40
35 33 31 33 28 27 36 37 46 47 45 40 41 46 57 63 58 56 49 47 45 45 44 45 44 43 41 38 40 49 45 37
33 32 33 35 37 35 40 49 52 51 50 40 41 42 48 54 50 49 45 43 47 42 42 42 42 42 38 37 42 43 39 33
41 42 46 46 49 58 61 60 56 50 45 39 40 39 47 50 47 43 40 39 42 39 39 40 40 38 38 35 39 36 30 30
46 51 57 54 51 51 51 50 40 37 37 35 37 41 42 43 41 41 37 38 41 36 38 44 42 41 34 35 31 22 29 34
54 55 55 48 43 42 40 41 37 33 32 33 34 39 40 38 37 39 39 39 37 31 36 40 36 29 31 35 21 21 22 29
54 52 47 48 45 41 37 33 38 35 31 34 36 36 37 36 37 40 41 35 36 32 28 32 29 33 25 25 25 22 10 15
61 53 50 52 52 47 46 42 42 33 34 33 38 31 32 35 42 39 38 38 34 27 30 27 29 27 31 28 21 25 29 23
Wind_Direction_850mb
169 185 190 202 205 203 203 200 199 202 203 200 202 203 204 209 210 211 211 208 207 214 218 219 225 237 257 280 290 298 291 290
172 184 195 208 212 213 211 210 207 209 211 212 210 213 215 216 216 218 219 217 214 216 220 223 229 237 245 254 265 280 286 283
174 180 203 207 213 219 220 221 219 216 220 221 221 221 222 223 222 224 224 223 223 223 227 229 231 236 238 243 256 267 275 274
179 183 211 207 214 220 225 229 231 230 229 230 231 230 228 230 230 229 230 231 231 232 233 233 234 240 249 256 265 275 280 274
184 191 196 217 220 223 229 232 235 241 241 240 239 237 235 237 238 235 234 234 234 236 235 235 239 245 251 258 268 282 288 284
193 197 199 209 227 229 234 242 241 245 244 243 243 241 238 238 240 237 235 236 237 237 236 238 242 247 250 256 271 295 294 282
202 205 208 205 208 221 215 234 255 251 252 248 246 244 237 236 239 241 238 235 236 236 237 240 242 244 248 249 283 287 311 258
217 213 218 233 217 213 217 221 243 259 255 255 250 247 246 236 235 233 228 240 235 234 235 237 238 240 238 237 247 274 267 262
219 222 223 222 254 241 222 237 238 237 238 242 251 255 243 244 233 224 229 227 243 229 237 225 234 235 233 234 242 246 256 257
223 223 236 237 246 230 233 249 257 249 241 236 234 249 255 229 230 229 224 222 229 229 234 227 228 236 235 237 244 250 252 251
240 236 239 234 228 232 259 276 277 269 248 241 232 231 253 247 226 224 228 227 223 230 232 232 232 232 235 239 247 242 257 255
244 241 236 217 228 256 272 279 286 281 258 240 238 231 238 252 224 223 224 229 229 226 229 230 234 236 234 241 243 249 244 240
244 237 232 224 229 251 274 287 279 271 260 241 233 233 235 238 238 223 220 228 228 226 227 229 230 233 237 242 247 246 255 244
236 227 232 236 246 254 269 279 274 273 256 240 234 226 230 227 226 212 220 223 225 224 224 226 227 231 236 241 247 259 253 242
240 238 238 242 258 266 270 267 261 263 252 239 230 223 219 225 216 220 214 217 223 221 221 222 226 228 232 246 247 256 251 240
240 237 245 264 267 260 255 256 247 248 239 232 225 217 210 216 210 215 208 222 215 216 215 222 221 226 230 240 246 250 252 245
245 247 255 256 253 251 250 247 238 245 236 229 218 212 205 205 207 209 196 217 217 208 212 215 214 222 228 236 229 253 262 265
248 250 252 250 247 246 250 249 248 232 213 213 210 205 202 198 204 208 188 202 213 183 214 210 215 214 228 229 230 242 249 260
252 248 246 243 247 248 250 246 233 225 218 215 207 201 193 191 210 189 183 192 199 190 209 213 218 218 227 238 245 249 244 255